Текстильщик

Россия / Московская область     55°56′52″N   37°50′04″E
темп.,
°C
ветер,
м/с
пор.,
м/с
влажн.,
%
обл.,
%
осадки,
мм/ч
давл.,
гПа
погр.,
м
12 апреля, пн
пн1200:00+7юв22735 0.0 103323
03:00+6вюв22785 0.0 103427
06:00+5вюв2481100 0.0 103472
09:00+9вюв41063100 0.0 1034442
12:00+13вюв61047100 0.0 1032914
15:00+13вюв5951100 0.0 1030940
18:00+12вюв51064100 0.0 1029726
21:00+9вюв4127999 0.0 1029420
13 апреля, вт
вт1300:00+7вюв4119379 0.0 1028290
03:00+7вюв31196100 0.0 1027254
06:00+7юв31293100 0.0 1026244
09:00+12ююв51165100 0.0 1026397
12:00+16ююв5948100 0.0 1025654
15:00+19ю583798 0.0 10241712
18:00+18ююв484142 0.0 1023318
21:00+12ююв396073 0.0 1024172
14 апреля, ср
ср1400:00+11юв3106656 0.0 1023203
03:00+9юв39715 0.0 1023171
06:00+8юв367464 0.0 1023116
09:00+13ююв485494 0.0 1022327
12:00+17ююв5841100 0.0 1021814
15:00+18ююв573587 0.0 10201579
18:00+17ююв48395 0.0 1019437
21:00+12юв3757100 0.0 1019121
15 апреля, чт
чт1500:00+10юв2666100 0.0 1019112
03:00+9юв236989 0.0 101838
06:00+8юв227389 0.0 101838
09:00+12юв3457100 0.0 1018257
12:00+16ю2342100 0.0 1017676
15:00+18ююз1138100 0.0 10171017
18:00+16вюв1148100 0.0 101614
21:00+13всв1158100 0.0 101611
16 апреля, пт
пт1600:00+10ссв2369100 0.0 101644
03:00+8ссв3790100 0.0 1016193
06:00+7ссв4892100 0.0 1018304
09:00+9св687899 0.0 1019558
12:00+11св7967100 0.0 1020834
15:00+8св71173100 0.0 1022829
18:00+9св6115081 0.0 10231180
21:00+6св613520 0.0 1025890